Dewpoint
25 25 26 27 27 26 25 27 27 27 27 28 28 28 29 29 29 29 30 31 30 29 28 28 28 28 29 33 34 35 36 36 37 37 37 37 38 38 38 38 38 38 38 38 38 38 38 38 38 39 39 40 40 40 41 41 41 42 42 42 42 42 42 43 43 43 43 42 42 42 42 42 42 42 42 42 42 43 43 43 43 43 43 44 44 45
25 25 26 26 26 26 25 27 28 28 28 28 28 28 29 28 28 29 29 30 29 29 28 28 28 28 28 31 34 35 36 36 36 37 37 37 37 38 38 38 38 38 38 38 38 38 38 38 38 38 39 39 39 40 40 40 40 41 41 41 41 41 41 42 42 42 42 42 41 41 41 41 41 42 42 42 42 42 42 42 43 43 43 44 44 45
25 24 25 26 26 26 26 27 28 29 28 28 28 29 29 29 29 29 29 29 29 29 29 29 28 28 28 30 33 35 36 36 36 37 37 37 37 37 38 38 38 37 37 37 37 38 38 38 38 38 38 38 39 39 39 39 39 40 40 40 40 40 40 40 41 41 41 40 40 40 40 41 41 41 42 42 42 42 42 42 43 43 44 44 44 45
24 24 25 25 26 27 27 28 28 29 29 29 29 30 30 29 29 29 29 29 29 29 29 29 29 29 29 29 32 34 36 36 36 37 37 37 37 37 37 37 37 37 37 37 37 37 38 38 38 38 38 38 38 38 38 39 39 39 39 39 39 39 40 40 40 40 40 40 40 40 40 40 40 41 41 41 41 42 42 42 43 43 43 44 44 44
24 24 25 25 26 26 28 28 29 29 29 30 30 30 29 29 29 29 29 29 29 29 29 29 29 29 29 29 31 34 35 36 36 37 37 37 36 36 36 36 36 36 36 37 37 37 37 38 38 38 38 38 38 38 38 38 38 38 38 39 39 39 39 39 39 39 39 39 39 39 39 40 40 40 40 40 41 41 41 42 42 43 43 43 44 44
23 25 25 26 26 26 27 28 29 29 29 29 29 29 29 29 29 29 29 29 29 29 29 29 29 29 29 29 31 34 35 36 36 36 36 36 36 35 35 36 36 36 36 36 37 37 37 37 38 38 38 38 38 38 38 38 38 38 38 38 38 38 38 39 39 39 39 39 39 39 39 39 39 39 39 39 40 40 41 41 42 42 43 43 43 43
23 24 25 26 26 26 27 28 29 29 29 29 29 29 29 29 29 29 29 29 29 29 29 29 29 29 29 29 32 34 34 35 35 35 35 35 35 35 35 35 35 36 36 36 36 37 37 37 37 37 37 38 38 38 38 38 38 38 38 38 38 38 38 38 38 38 38 38 38 38 38 38 38 38 38 39 39 39 40 40 41 41 41 42 42 43
23 24 25 25 25 26 27 28 29 29 29 29 29 28 28 28 28 28 28 28 28 28 28 29 29 28 28 28 29 31 31 31 31 32 33 33 34 34 34 35 35 35 36 36 36 36 37 37 37 37 37 37 37 37 37 37 37 37 37 37 38 38 38 38 38 38 38 38 38 38 38 38 38 38 38 38 38 38 39 39 40 40 40 41 42 42
24 24 24 25 25 26 27 28 28 29 29 29 29 28 28 27 27 27 27 27 27 27 28 28 27 27 26 26 27 28 29 29 29 29 30 30 31 32 33 34 35 35 36 36 36 36 36 36 36 36 36 36 36 36 36 36 36 37 37 37 37 37 37 37 38 38 38 38 38 38 38 38 38 38 38 38 38 38 38 38 39 39 40 40 41 41
24 24 24 25 25 26 27 28 28 29 29 29 29 28 27 27 27 27 26 27 27 27 27 27 26 25 25 25 25 26 28 29 31 32 32 32 32 32 33 34 34 34 35 35 36 36 36 36 36 36 36 36 36 36 36 36 36 36 36 36 36 37 37 37 37 37 37 37 37 37 37 37 37 37 37 37 37 37 37 38 38 38 39 39 40 41
24 24 25 25 26 27 28 28 28 29 29 29 28 28 28 28 27 27 26 26 26 26 26 26 25 25 25 25 25 26 27 27 28 30 31 32 33 33 34 34 34 34 35 35 35 35 35 35 35 35 35 35 35 35 35 35 35 35 36 36 36 36 36 36 36 37 37 37 37 37 37 37 37 37 37 37 37 37 37 37 37 37 38 38 39 39
25 25 26 26 27 28 28 28 28 28 28 28 28 28 28 28 27 26 26 26 25 25 25 25 25 25 25 25 26 26 26 26 26 27 28 29 30 31 31 32 32 33 33 34 34 34 34 34 34 34 34 34 34 34 34 34 35 35 35 35 36 36 36 36 36 36 36 37 37 37 37 37 37 37 37 37 37 37 36 36 37 37 37 37 38 38
25 26 26 27 27 27 27 27 27 27 27 27 27 27 27 27 27 26 25 25 25 25 25 25 25 25 25 26 26 26 25 25 25 26 26 27 28 29 29 29 29 29 30 30 30 31 32 33 33 33 33 33 34 34 34 34 34 35 35 35 35 35 36 36 36 36 36 36 36 36 36 36 36 36 36 36 36 36 36 36 36 36 36 37 37 37
25 26 27 27 26 26 26 26 26 25 25 25 26 26 27 27 26 26 25 25 25 25 25 25 25 25 25 26 27 27 26 26 26 26 26 27 28 29 30 29 29 29 29 29 28 29 30 31 30 30 32 32 33 33 34 34 34 34 35 35 35 35 35 35 35 36 36 36 36 36 36 36 36 36 36 36 36 36 36 36 36 36 36 36 37 37
26 26 26 26 26 25 25 25 25 25 25 25 25 26 26 26 26 25 25 25 25 25 25 25 25 26 26 26 27 27 26 26 26 27 27 28 29 30 31 30 29 29 29 28 27 27 29 29 28 28 29 30 31 32 33 33 34 34 34 34 35 35 35 35 35 35 35 35 35 35 35 35 35 35 35 35 35 35 35 36 36 36 36 36 37 37
26 26 26 25 25 25 25 25 25 25 25 25 25 25 25 25 25 25 25 25 25 25 25 25 25 25 25 26 26 27 27 27 28 28 29 29 31 32 31 30 29 28 28 27 26 26 26 26 26 27 28 29 31 33 33 33 34 34 34 34 34 34 34 34 34 35 35 35 35 35 35 35 35 35 35 35 35 35 35 36 36 36 36 37 37 37
26 26 25 25 25 25 24 24 24 24 25 25 25 25 25 25 25 25 25 25 25 25 25 25 25 24 24 25 26 27 28 28 29 30 31 32 32 32 30 29 28 27 26 26 26 26 25 26 26 27 28 30 32 33 33 33 33 34 34 34 34 34 34 34 34 34 34 34 35 35 35 35 35 35 35 35 35 35 35 35 36 36 36 37 37 37
26 26 25 25 25 24 24 24 24 24 24 25 25 25 25 25 25 25 25 25 25 25 25 25 25 25 25 25 25 26 29 29 31 32 34 33 32 30 29 28 27 26 25 25 25 25 25 25 26 26 28 31 32 32 32 33 33 33 33 34 34 34 34 34 34 34 34 34 34 34 34 34 34 34 34 35 35 35 35 35 35 36 36 36 36 36
27 26 26 25 25 25 24 24 24 24 24 25 25 25 25 25 25 25 25 25 26 26 26 26 26 26 25 25 26 27 30 32 34 34 34 31 29 28 27 26 26 25 25 25 25 25 25 25 27 29 31 31 32 32 32 32 33 33 33 33 33 34 34 34 34 34 34 34 34 34 34 34 34 34 34 34 34 34 34 34 34 34 35 34 35 35
28 28 27 26 25 25 25 24 24 25 25 25 26 26 26 26 26 26 26 26 26 26 27 27 26 26 26 26 28 29 32 34 35 34 31 29 27 26 26 25 25 25 25 25 25 26 26 25 26 28 29 30 31 31 32 32 32 33 33 33 33 33 33 33 33 34 34 34 34 34 34 34 34 34 34 34 34 34 34 34 34 34 34 34 34 35
30 29 28 27 26 25 25 25 25 25 27 28 27 27 26 26 26 26 27 27 27 27 28 27 27 27 28 29 30 32 35 36 34 31 28 25 25 25 25 25 24 24 24 24 25 25 25 25 25 25 28 29 30 31 32 32 32 33 33 33 33 33 33 33 33 33 33 33 34 34 34 34 34 34 33 33 34 34 34 34 34 34 34 34 35 35
31 30 29 28 27 27 27 26 27 28 29 29 28 27 27 27 27 27 28 28 28 28 28 28 28 29 29 31 33 35 37 35 31 28 25 24 24 24 25 24 24 23 23 23 24 24 24 24 24 25 28 30 31 31 32 32 32 32 32 32 32 32 32 32 33 33 33 33 33 33 33 33 33 33 33 33 33 33 33 34 34 34 34 34 34 34
31 30 30 29 29 28 28 28 28 29 29 29 29 29 29 28 28 28 29 29 29 29 29 29 30 32 34 35 36 36 34 30 27 25 25 24 23 23 23 23 23 22 22 23 23 24 24 24 25 25 28 30 31 31 31 31 31 31 31 32 32 32 32 32 32 32 33 33 33 33 33 33 33 33 33 33 33 33 33 33 34 34 34 34 34 34
30 30 29 29 29 29 29 29 29 29 29 29 29 30 30 30 30 30 30 30 31 31 32 32 33 34 35 35 34 31 28 27 26 25 24 23 22 22 23 22 22 22 22 23 23 24 23 24 25 25 27 29 30 30 30 31 31 31 31 31 31 31 31 32 32 32 32 32 32 32 32 32 32 32 32 32 33 33 33 33 33 33 33 33 33 33
29 29 29 29 30 31 30 30 30 30 30 30 30 31 32 32 33 33 34 34 34 34 34 34 34 33 31 29 27 25 25 25 25 24 23 22 22 22 22 22 22 21 22 23 23 23 23 23 24 25 25 27 28 29 29 30 30 30 30 30 31 31 31 31 31 31 31 31 31 32 32 32 32 32 32 32 32 32 32 32 32 33 33 33 33 33
32 32 32 32 33 34 34 34 34 34 34 33 33 33 34 35 35 35 36 35 35 35 34 33 30 29 27 25 25 24 25 25 25 24 22 22 21 21 21 22 21 21 21 22 23 23 23 23 23 23 24 25 26 28 29 29 29 29 30 30 30 30 31 31 31 31 31 31 31 31 31 31 31 32 32 32 32 32 32 32 32 32 32 32 32 32
34 34 35 35 35 35 35 35 35 35 35 35 35 36 37 37 36 36 35 35 34 34 31 29 27 26 25 25 24 24 24 24 24 23 22 22 21 21 21 22 22 21 21 22 22 23 23 22 22 22 22 23 24 25 28 28 29 29 29 29 30 30 30 30 30 30 30 30 31 31 31 31 31 31 31 31 32 32 32 32 32 32 32 32 31 31
34 34 34 34 34 34 34 34 35 35 36 37 37 38 38 38 36 35 34 34 33 31 29 27 26 25 24 24 24 23 23 23 23 23 23 22 21 21 21 22 22 22 21 21 22 23 24 23 22 22 21 22 23 24 26 27 28 29 29 29 29 29 29 29 30 30 30 30 30 30 30 31 31 31 31 31 31 31 31 31 31 31 31 31 30 30
34 34 34 34 34 34 34 34 35 36 37 37 38 38 38 37 35 34 33 32 30 28 27 26 25 25 24 23 23 23 23 22 22 23 23 22 21 21 21 22 22 22 21 21 22 22 22 21 21 21 21 22 22 23 24 26 27 27 28 29 29 29 29 29 29 29 29 29 30 30 30 30 30 31 31 31 31 31 31 31 31 31 30 30 29 29
32 33 33 33 33 34 34 34 35 36 37 37 37 36 36 35 34 32 31 29 28 27 25 25 25 24 23 23 22 22 21 21 22 23 23 22 21 21 21 21 22 22 22 22 21 20 20 20 20 20 20 21 22 22 22 24 24 25 25 27 27 28 28 29 29 29 29 29 29 29 30 30 30 30 30 30 30 30 31 31 30 30 29 29 29 29
30 31 31 32 33 33 34 34 34 35 36 36 37 36 35 33 32 30 29 28 27 26 25 24 24 24 23 22 22 21 20 21 22 23 23 22 21 21 21 22 22 22 23 23 21 20 18 18 19 20 20 21 21 21 22 22 23 23 24 25 25 26 27 28 28 28 29 29 29 29 29 29 29 30 30 30 30 30 30 30 30 29 29 29 29 29
31 31 32 32 32 33 34 34 34 34 33 34 34 33 33 32 30 29 28 27 26 25 25 24 24 23 23 23 22 21 21 21 23 24 24 23 22 22 22 22 22 22 23 23 22 20 18 18 18 19 20 20 21 21 22 22 23 23 24 24 24 24 26 27 27 28 28 28 29 29 29 29 29 29 29 29 29 29 30 30 30 29 29 29 29 29
32 33 32 33 33 33 33 33 32 31 31 30 30 29 29 29 29 29 28 27 26 25 24 24 23 23 23 22 22 22 22 22 23 24 25 23 23 22 22 22 22 22 22 22 21 21 20 19 19 19 20 20 20 21 21 22 23 24 24 23 23 23 25 26 26 26 27 27 28 28 29 29 29 29 29 29 29 29 29 30 30 29 29 29 29 29
33 33 33 33 33 32 31 30 30 29 29 29 28 28 28 28 28 28 28 27 26 25 24 23 23 22 22 22 22 21 21 21 23 25 25 24 23 23 22 22 22 21 21 20 20 20 20 19 19 19 19 20 20 21 21 22 23 23 23 23 22 22 23 24 25 25 25 25 25 25 26 26 27 28 28 28 29 29 29 29 30 30 30 29 29 28
32 32 33 32 31 30 29 29 28 28 28 27 27 27 27 26 26 26 26 25 25 25 24 24 23 23 22 22 21 21 21 21 23 25 25 24 23 23 22 21 21 20 20 20 19 19 19 19 19 20 19 20 20 20 21 21 22 23 23 23 23 23 23 24 24 24 25 25 24 24 24 24 25 26 26 27 28 29 29 29 29 30 30 29 29 28
31 32 32 30 29 29 28 28 27 27 27 26 26 26 26 25 25 25 24 24 25 25 25 25 24 24 23 22 22 21 21 21 23 24 25 24 23 23 22 21 20 20 20 20 20 20 19 19 20 20 20 19 19 20 20 21 22 22 22 23 23 23 23 24 24 24 24 24 24 23 23 24 24 25 25 27 28 29 29 29 29 29 29 29 29 29
31 31 30 29 28 28 27 26 25 25 25 25 25 25 25 24 24 24 24 24 24 24 24 24 24 24 25 24 23 22 22 22 23 24 25 25 24 23 22 22 22 22 21 21 21 20 20 20 20 20 19 19 19 19 20 21 21 21 22 22 22 23 23 24 24 24 24 24 24 24 24 24 24 25 25 27 27 28 28 29 29 29 29 29 29 29
30 29 28 27 26 25 25 24 24 24 24 24 24 24 24 24 23 23 23 23 22 22 22 22 22 23 25 25 25 25 25 24 25 25 26 25 25 24 23 23 23 23 23 22 22 22 21 20 20 19 18 18 19 20 21 21 21 21 21 22 22 23 23 23 24 24 23 23 24 24 25 24 24 24 25 25 25 25 26 26 27 28 28 28 28 28
28 27 25 26 25 25 24 24 24 24 24 24 24 24 24 23 23 23 23 22 22 21 21 21 21 22 23 24 25 25 26 25 25 25 25 25 25 24 23 22 22 22 23 23 23 23 22 21 20 19 19 19 20 20 21 21 21 21 21 22 22 22 23 23 23 23 23 23 24 24 24 24 23 23 24 24 24 24 24 24 25 25 25 25 26 27
26 25 25 26 25 25 24 24 25 25 24 24 25 25 24 23 23 22 22 22 22 22 21 21 21 21 22 22 23 23 24 24 24 24 24 24 24 23 22 21 21 21 22 22 22 22 22 21 21 21 21 21 21 21 21 21 21 21 22 22 21 21 22 23 23 23 23 22 23 23 23 23 23 23 24 24 24 24 24 23 24 24 25 24 24 24
25 25 25 25 25 25 25 25 25 24 24 24 23 22 22 21 21 21 20 21 21 21 21 21 21 21 21 21 20 20 21 22 22 22 23 23 23 23 22 21 21 21 21 21 22 22 22 22 22 22 22 22 22 22 22 21 22 23 23 22 21 22 23 23 23 23 22 22 22 23 23 23 24 24 24 24 24 24 23 23 23 23 24 24 23 23
27 26 25 25 25 25 24 24 24 24 24 23 22 21 21 20 20 20 20 20 20 20 20 20 20 20 20 20 20 20 20 20 21 22 23 23 23 23 22 22 21 21 21 22 22 22 23 23 23 23 23 23 23 22 21 21 22 22 23 23 22 23 23 23 22 21 21 22 22 23 24 23 23 23 24 23 23 23 23 23 23 24 24 24 23 23
26 25 25 24 24 24 24 24 24 24 23 21 21 20 20 20 21 20 20 20 20 20 20 20 20 19 19 18 18 18 19 19 20 21 22 22 23 23 23 22 22 22 22 23 23 23 24 24 24 24 24 24 23 22 21 21 22 22 22 23 23 22 20 20 21 21 21 22 22 22 22 23 23 23 23 22 22 21 21 22 23 24 25 24 23 23
25 24 23 23 23 23 23 23 22 22 21 20 20 20 21 21 21 21 21 20 20 20 20 20 19 19 18 17 17 17 17 18 19 20 21 23 24 24 24 24 24 24 24 24 24 24 24 24 23 23 23 23 23 22 22 22 22 22 22 22 22 21 20 20 21 21 21 21 22 22 23 23 23 22 21 20 20 20 20 21 21 22 24 23 23 22
23 23 23 23 23 22 21 21 21 21 21 21 21 20 21 21 21 21 20 20 20 20 20 20 19 18 17 16 16 16 16 16 17 19 20 22 23 23 24 23 23 23 23 24 23 23 23 22 22 22 22 23 23 23 23 22 22 21 22 22 22 22 21 21 21 21 21 21 21 22 23 23 21 20 19 18 18 18 19 20 21 22 22 22 22 22
22 21 20 21 21 21 21 21 21 21 21 21 21 21 21 21 21 21 21 20 20 20 20 19 19 18 17 16 16 16 16 16 16 16 17 19 20 21 22 22 23 23 22 23 23 23 23 23 23 23 24 23 23 23 22 21 21 21 20 21 21 21 20 20 21 21 21 21 22 22 22 21 19 18 16 16 17 18 19 20 21 21 21 21 21 21
20 20 19 20 21 22 22 22 22 21 21 21 21 21 21 21 20 20 20 20 20 20 20 19 19 18 17 16 16 16 15 15 16 16 16 17 18 19 20 21 22 23 22 22 23 23 24 24 25 25 24 23 22 21 20 20 20 20 20 20 20 20 20 20 20 21 21 21 21 20 19 19 17 16 16 16 17 18 20 20 21 21 21 21 21 21
22 22 22 22 22 22 22 22 21 21 21 20 20 20 20 21 21 20 20 20 20 20 20 19 18 17 16 16 16 16 16 16 16 16 16 16 17 18 19 19 20 21 22 22 23 23 24 24 25 25 23 22 21 20 20 20 20 20 20 20 20 20 20 20 20 20 21 20 19 18 17 17 16 16 16 17 18 19 19 20 20 20 20 20 21 21
23 23 23 22 22 22 22 21 21 21 21 20 20 20 20 21 21 21 20 20 20 20 19 18 17 17 16 16 16 16 16 16 16 16 16 16 17 17 18 19 19 20 20 21 21 22 22 23 24 24 23 22 21 20 20 20 20 20 20 20 20 20 19 20 19 19 18 17 17 16 16 16 16 17 17 18 18 18 18 19 19 19 20 20 20 21
23 23 23 22 22 22 22 21 21 21 21 20 20 20 20 20 20 20 20 20 20 19 19 18 17 17 16 16 16 16 16 16 16 16 16 16 17 17 18 18 18 19 19 19 19 19 19 20 20 22 24 24 23 22 20 20 20 20 20 19 19 18 18 17 17 16 16 16 16 17 17 17 17 18 19 18 18 18 17 17 18 19 19 20 20 21
23 23 23 22 22 22 22 22 21 21 21 21 20 20 20 20 20 20 20 20 19 19 18 18 17 16 16 16 16 16 16 16 16 16 16 16 16 17 17 17 18 18 17 17 17 17 16 16 16 17 20 23 24 23 21 20 20 19 18 17 16 16 15 15 15 16 16 16 16 16 17 17 18 18 18 18 17 16 16 16 17 18 19 20 20 21